Theta_e
359 360 363 367 362 368 371 366 366 365 364 360 370 368 360 361 351 345 345 349 346 348 344 346 356 364 359 367 357 357 360 358 356 361 361 360 360 354 348 347 346 346 345 346 346 347 349 349 349 350 351 351 352 355 353 350 350 350 350 352 354 354 354 352 350 348 348 348 347 347 347 349 350 350
368 364 363 362 367 367 370 370 364 373 366 365 365 362 361 361 351 351 345 346 352 350 350 345 360 360 368 361 362 360 359 358 357 356 360 359 358 349 347 347 346 345 345 344 343 345 346 346 346 346 345 346 347 350 351 351 350 349 348 349 351 352 353 351 350 349 348 348 348 347 348 349 349 349
367 370 368 366 363 369 364 368 360 365 366 369 368 368 363 361 358 355 353 346 356 362 352 353 352 356 366 361 353 356 361 359 355 355 357 358 354 350 350 347 345 344 343 342 341 340 340 340 341 341 342 343 344 346 347 348 349 349 348 348 348 348 348 348 347 348 348 348 348 347 347 348 349 349
368 368 367 373 372 372 371 370 367 373 368 368 368 364 362 363 363 360 355 349 348 359 354 354 356 356 354 358 358 357 361 362 356 362 361 361 356 355 355 352 348 344 341 341 340 338 337 336 338 340 341 343 345 346 346 345 345 346 346 347 347 346 346 343 343 345 346 347 346 346 346 347 348 348
368 370 368 369 371 375 371 371 367 364 366 365 365 367 369 367 362 359 356 351 351 358 362 361 359 359 361 356 364 359 358 361 366 363 365 364 360 358 359 359 353 347 342 339 338 338 337 336 337 339 341 342 344 346 346 345 344 342 341 342 340 341 343 341 341 343 344 344 345 345 345 346 346 346
367 370 369 369 368 370 367 367 362 362 358 362 360 362 361 361 363 364 359 356 354 352 360 360 364 362 363 357 365 362 363 362 364 362 363 364 363 364 365 363 363 352 345 339 337 336 336 336 336 337 338 340 341 342 342 341 339 339 339 337 336 336 336 337 339 341 341 342 344 344 344 344 345 345
367 366 367 365 367 366 364 365 363 362 364 362 366 366 366 364 361 365 363 360 356 354 356 362 358 359 366 364 361 363 364 364 365 364 365 364 364 366 365 365 364 355 349 345 339 336 336 336 336 335 337 338 337 338 336 335 335 335 334 333 334 335 335 335 337 339 339 341 342 344 343 343 343 343
365 363 364 363 364 364 363 365 366 365 363 364 366 363 362 365 366 369 368 367 359 356 354 359 360 361 360 362 365 366 365 363 363 364 364 365 363 364 365 363 363 359 350 347 345 343 340 338 336 334 334 334 333 332 331 330 331 331 330 330 331 331 331 331 332 335 335 336 337 339 341 342 342 339
366 365 363 363 364 365 363 363 363 364 365 366 364 363 364 363 363 363 363 363 364 361 357 359 362 365 363 363 363 364 361 363 364 365 365 364 363 363 363 362 363 353 348 346 344 341 339 338 338 337 336 335 333 331 330 329 329 329 329 329 329 329 329 329 328 330 331 331 333 332 334 336 338 338
365 364 364 364 365 363 361 361 362 365 365 366 363 363 366 367 367 367 367 367 365 363 361 359 358 362 360 361 363 365 366 363 359 359 361 364 364 363 363 365 368 368 366 366 366 354 352 350 344 341 339 336 334 333 331 330 329 328 327 324 323 325 326 327 328 328 327 328 330 331 331 333 333 334
364 364 364 365 364 363 363 362 362 365 367 365 365 367 367 366 367 364 363 364 364 362 360 359 360 358 361 361 361 367 366 361 359 356 356 359 368 376 371 365 366 366 365 360 354 355 353 349 348 338 333 333 334 335 334 332 330 328 326 323 322 322 322 323 324 325 325 326 326 326 326 327 331 333
361 363 363 361 363 363 364 363 364 364 364 366 364 366 367 367 366 363 363 364 363 361 359 359 358 360 359 360 361 363 363 361 361 364 363 359 362 364 367 365 361 363 363 362 362 355 353 350 348 341 341 342 340 337 337 339 338 335 329 326 327 326 324 323 323 323 323 322 321 322 323 323 326 329
361 360 360 361 360 363 369 364 363 364 366 364 364 365 367 367 366 365 364 364 362 361 359 357 360 359 357 357 357 357 358 359 360 361 368 363 363 361 359 362 364 362 360 360 360 360 359 355 353 352 352 353 350 348 344 344 346 341 331 328 328 328 327 325 324 324 323 322 321 320 321 322 324 326
359 359 358 356 367 360 360 357 355 352 357 361 365 368 369 367 365 365 364 363 362 361 359 357 356 355 354 355 355 355 358 360 360 364 364 359 359 358 356 356 360 364 360 358 355 355 356 353 351 353 353 354 353 352 351 350 343 334 329 328 328 328 327 325 324 323 323 322 321 320 319 320 322 323
357 358 359 357 361 369 360 356 349 348 346 349 349 351 358 370 372 366 365 363 363 361 359 360 359 356 355 357 359 358 356 357 365 363 363 360 357 353 350 348 353 365 363 353 350 350 354 355 352 354 354 353 350 350 348 336 335 330 328 328 327 327 327 328 327 326 324 322 321 320 319 319 320 320
359 358 357 356 354 354 363 363 359 352 346 342 343 342 343 345 347 351 358 356 357 360 360 359 358 357 356 358 359 357 356 362 363 363 362 359 356 353 351 350 347 352 356 351 348 348 355 358 356 352 347 347 348 344 337 333 334 330 327 327 327 327 327 327 328 328 327 325 325 325 324 322 321 321
359 359 358 355 355 350 366 369 363 361 358 343 337 341 342 344 341 335 333 337 352 354 356 355 355 356 357 355 356 360 362 366 360 362 361 360 358 356 353 351 349 350 354 352 350 348 353 356 344 341 344 344 343 343 339 334 333 329 329 329 329 328 327 326 326 327 326 325 323 323 322 321 320 320
360 360 359 358 357 357 359 368 365 368 363 362 357 354 355 356 356 344 333 331 330 340 351 352 350 354 360 358 361 367 371 365 362 361 359 359 356 355 352 354 353 354 356 351 351 343 341 345 343 340 340 341 341 342 336 331 329 329 329 328 327 326 325 325 326 325 325 324 323 321 319 318 318 318
363 363 360 360 359 360 360 361 369 369 368 367 367 364 359 359 360 361 360 356 351 347 347 351 354 356 360 364 368 369 373 371 368 366 362 361 358 356 356 355 356 355 361 351 345 337 339 341 336 336 337 339 339 341 333 331 328 329 326 327 328 327 325 325 325 324 324 323 322 320 318 317 316 314
366 366 364 361 360 360 362 359 349 357 368 369 371 370 367 366 365 365 363 350 351 359 356 355 356 357 359 354 370 372 366 365 369 368 364 359 354 351 348 345 346 345 345 347 339 336 333 338 335 334 338 338 337 338 341 334 330 327 326 328 328 327 324 323 322 322 323 323 322 320 317 314 312 311
366 365 365 367 363 362 364 355 338 337 354 365 365 366 368 369 368 367 370 348 338 338 335 336 340 341 340 333 329 327 328 351 356 359 355 349 348 344 341 344 342 337 340 345 341 336 331 335 335 334 336 336 335 337 338 339 331 328 328 327 327 326 325 323 321 322 324 323 321 320 319 315 313 312
365 366 369 372 367 365 366 347 335 332 347 360 363 364 364 364 363 364 364 361 358 337 335 335 334 332 332 332 329 330 329 327 338 354 348 347 344 342 343 338 336 337 346 342 340 333 333 335 336 333 334 335 337 336 337 337 336 333 329 328 328 327 326 324 323 323 323 322 321 318 317 313 311 317
364 366 368 371 365 366 360 343 332 329 346 362 363 364 362 361 361 361 362 363 366 358 356 356 355 355 350 354 357 357 346 337 346 354 353 349 350 343 343 340 337 335 342 342 342 333 333 334 336 334 330 328 332 336 336 336 337 339 339 337 337 327 326 327 325 322 321 320 318 318 312 309 315 321
361 363 366 363 339 334 337 337 327 324 330 361 367 366 362 360 359 362 363 367 379 365 363 362 362 360 363 365 365 365 365 364 362 358 357 353 350 347 346 338 338 336 339 346 342 336 337 338 334 336 333 328 326 331 334 334 337 338 335 333 331 328 330 331 329 328 326 319 316 315 309 309 316 323
360 361 361 363 348 329 326 327 318 318 319 339 367 367 364 365 365 358 367 373 367 373 373 369 369 367 367 365 365 364 362 360 363 358 356 355 352 347 341 340 340 339 342 345 338 341 338 338 335 333 332 332 330 329 332 334 336 334 333 331 328 330 332 333 332 338 329 315 310 307 306 309 314 323
360 361 363 362 350 328 325 322 316 314 318 322 357 367 342 325 333 366 366 366 370 369 368 365 361 361 360 361 363 357 354 352 351 354 353 348 353 348 346 346 342 338 339 345 337 343 340 336 334 332 331 330 329 330 329 331 332 331 330 329 328 329 330 331 334 336 339 344 330 318 315 309 313 317
362 363 363 364 352 327 320 319 318 316 316 324 344 336 322 325 329 351 360 361 362 363 361 360 359 360 361 359 355 354 349 345 345 346 346 347 350 350 351 353 350 347 347 347 348 346 343 337 336 333 330 331 328 329 330 327 326 328 326 326 327 328 330 331 331 332 336 339 323 312 310 308 311 314
365 365 365 359 337 320 315 316 318 320 320 338 326 325 324 324 333 355 358 355 357 357 355 357 357 358 360 358 354 350 348 343 350 349 349 355 351 352 351 352 353 351 349 346 345 348 344 337 335 336 334 331 328 328 327 329 326 325 323 325 326 326 329 330 330 331 334 339 329 327 324 320 319 320
366 325 324 329 327 317 314 315 318 320 322 323 324 322 324 341 351 354 355 354 355 353 354 354 357 358 358 353 357 345 354 352 355 354 355 353 354 355 354 352 350 350 349 349 347 347 341 339 337 337 335 333 331 331 329 324 324 323 323 322 321 324 328 329 329 329 332 337 331 329 326 322 320 322
318 313 310 310 313 317 320 330 336 340 338 323 325 323 329 346 350 352 353 354 354 354 355 355 356 357 355 350 353 350 350 353 355 359 351 348 348 352 349 345 345 346 347 347 346 345 340 340 340 338 334 334 335 331 328 324 322 323 323 322 322 325 327 327 327 328 331 334 331 329 328 327 324 322
338 329 341 340 331 331 329 339 340 341 331 330 334 335 341 347 351 353 355 354 355 356 357 356 356 352 353 350 345 348 350 350 354 352 351 348 346 345 345 342 341 342 349 346 344 346 346 342 342 340 333 334 335 330 329 328 323 321 321 322 322 320 324 325 325 326 329 332 331 329 328 326 325 325
355 350 332 332 346 346 349 352 350 347 344 344 343 346 347 349 351 354 358 360 359 359 359 357 355 356 348 343 346 347 347 346 348 348 348 345 345 343 343 340 340 341 340 344 346 348 350 346 343 340 340 336 329 328 329 327 323 321 320 321 323 324 325 324 324 325 327 330 329 327 326 326 325 325
358 355 352 352 355 353 352 352 353 352 351 350 351 352 352 352 353 354 355 355 355 357 353 352 351 342 344 344 344 344 343 346 343 345 345 345 345 344 342 338 336 338 334 335 338 344 342 340 342 340 340 330 329 329 325 322 322 322 320 320 321 322 324 325 324 324 326 325 324 323 322 324 326 326
355 355 351 352 351 352 352 351 351 351 350 351 350 351 343 350 352 353 352 352 353 352 347 348 344 345 343 344 343 341 342 343 344 343 337 342 342 340 339 337 338 340 336 335 338 338 334 336 332 337 335 330 326 323 323 323 321 320 321 320 320 321 323 324 323 323 323 323 322 320 319 320 322 324
351 353 352 351 351 351 353 352 352 352 351 349 349 349 350 350 350 348 351 349 347 345 345 344 343 342 341 341 341 339 341 340 339 342 338 342 341 339 339 337 338 337 336 336 336 334 332 329 327 326 329 331 327 321 322 322 322 319 320 319 320 322 321 323 323 321 321 321 321 318 317 318 318 321
349 351 352 352 352 351 351 350 351 352 352 351 350 349 348 348 349 349 349 346 348 344 343 340 339 341 340 342 342 342 342 338 341 343 340 341 341 343 341 338 336 339 338 337 335 334 330 328 326 325 322 322 321 321 323 320 320 320 318 316 319 322 321 322 322 320 319 319 319 317 315 314 315 318
350 351 352 353 353 353 351 352 352 352 351 351 351 350 349 348 349 350 350 342 345 341 341 343 342 345 339 337 337 336 337 336 337 341 342 343 341 342 340 340 338 338 337 338 339 332 329 328 329 326 323 320 319 317 319 320 313 315 320 317 318 321 321 320 319 318 317 317 317 317 316 315 313 315
352 352 352 352 354 354 353 353 352 352 351 352 351 350 351 351 352 349 346 343 339 345 342 343 339 337 336 337 341 340 338 338 336 340 338 340 340 340 340 336 334 334 336 334 340 330 330 328 328 328 325 321 318 318 317 326 324 317 310 318 318 320 322 319 317 316 316 317 316 316 316 313 314 315
353 352 352 353 354 355 354 354 354 353 353 353 352 351 351 350 350 345 343 343 343 346 343 337 338 336 338 341 337 338 336 337 338 336 338 340 341 338 337 336 331 335 333 331 335 336 332 330 329 329 328 324 321 321 323 324 321 319 313 306 318 319 320 319 317 317 317 316 315 316 316 318 317 317
353 354 354 354 355 357 356 357 355 355 353 353 352 351 348 346 345 345 343 343 344 342 337 337 337 332 337 340 334 334 335 336 339 339 337 338 342 335 334 333 334 332 330 329 330 329 333 329 331 332 329 328 328 329 330 332 324 321 319 313 305 316 319 321 319 317 316 317 319 316 315 316 313 316
351 353 354 356 357 358 357 357 357 355 353 351 349 340 345 344 344 345 342 339 336 337 337 335 342 334 336 337 337 333 333 334 334 331 334 335 333 333 329 325 331 329 329 329 328 331 330 330 336 328 338 334 334 334 330 321 321 321 319 318 308 305 308 314 322 320 319 321 318 314 313 313 313 313
353 353 357 358 360 356 359 357 352 349 345 342 343 345 342 339 338 332 336 336 337 339 342 341 336 336 337 337 341 334 332 330 332 336 334 334 333 336 326 325 327 331 333 329 326 326 333 341 339 333 334 335 332 326 321 319 318 324 321 318 318 309 307 307 308 314 320 320 317 312 311 311 312 310
351 351 347 343 344 345 345 344 344 342 341 342 341 339 339 339 340 340 338 337 336 336 338 340 343 335 334 336 336 336 334 333 331 332 333 332 330 329 328 331 331 330 327 327 328 331 335 336 337 334 335 332 334 327 322 322 321 326 323 320 318 318 319 311 308 308 309 311 314 319 318 313 309 306
342 340 339 338 337 338 339 340 340 340 338 335 335 336 336 335 335 336 336 335 335 335 335 335 336 336 336 334 335 335 335 334 334 333 333 335 335 334 333 332 330 329 328 329 332 333 333 333 335 339 331 329 328 327 324 323 320 320 323 323 323 319 316 317 318 312 312 311 310 309 311 314 319 316
336 336 335 334 335 335 336 337 336 335 335 334 334 333 332 334 334 336 336 335 334 332 330 330 333 335 335 333 333 333 331 328 330 333 334 333 331 329 329 328 326 329 331 333 331 330 332 332 331 332 331 329 329 327 325 322 321 321 324 322 321 322 319 316 314 314 315 315 312 310 311 312 312 311
Wind_Speed
4 4 3 3 4 3 2 3 3 4 3 3 2 1 1 1 1 1 1 2 2 4 6 2 1 3 4 4 5 4 5 6 7 5 6 6 6 10 16 17 18 19 19 19 19 20 20 20 20 21 21 22 22 20 21 22 22 22 22 22 22 23 22 22 22 22 22 22 22 21 22 21 22 22
4 3 5 4 3 3 1 2 3 3 2 2 1 2 2 3 3 1 1 2 2 4 5 4 1 2 2 4 6 5 5 8 9 6 6 7 7 11 14 15 16 16 17 17 18 18 18 19 19 20 21 22 22 23 23 22 23 23 23 23 24 24 24 23 23 23 23 23 23 23 22 22 22 22
3 3 2 5 5 3 3 3 5 3 4 2 2 2 2 2 3 2 1 2 3 2 3 3 5 3 3 6 5 4 5 8 10 6 5 5 9 12 11 12 12 14 16 17 18 18 19 19 20 21 21 21 21 22 22 23 23 23 24 23 24 25 25 24 24 24 24 24 24 24 24 23 23 23
4 4 3 2 1 1 1 2 3 1 3 3 4 4 4 2 2 2 2 3 6 3 4 5 6 7 6 5 5 5 4 4 3 4 6 7 10 8 5 9 13 14 16 16 17 18 19 20 21 22 22 21 21 22 22 22 23 24 24 25 25 25 25 24 24 24 24 24 24 24 24 24 24 23
3 4 3 3 3 2 2 2 3 3 3 4 3 2 1 2 4 4 4 4 6 4 4 5 4 6 6 6 3 5 5 4 4 5 5 6 6 6 5 6 11 14 15 17 18 18 19 20 21 21 21 21 22 22 22 22 23 23 24 24 25 24 24 24 24 24 24 24 24 24 24 24 24 23
4 3 4 3 4 4 4 3 4 4 4 4 6 6 6 5 4 5 5 5 5 6 3 5 4 4 5 7 4 4 4 4 5 7 7 6 6 5 4 4 5 11 12 14 15 16 17 18 19 20 21 21 22 22 22 22 23 23 23 23 23 23 23 23 24 24 23 24 24 24 24 23 23 23
4 4 4 5 4 4 5 5 5 4 4 4 3 2 3 4 5 5 6 5 5 6 5 3 5 4 3 3 5 6 5 5 5 6 6 6 5 4 5 6 7 10 12 12 12 14 16 17 18 18 19 20 21 21 21 22 22 22 22 22 23 23 22 23 23 24 24 24 24 24 24 24 23 22
6 6 5 6 6 6 5 5 5 5 5 4 3 4 4 2 2 2 2 3 3 3 6 3 4 4 5 5 4 5 6 7 7 6 5 5 6 6 6 6 6 7 11 14 15 16 16 16 15 16 18 19 20 20 20 20 21 21 22 22 22 22 21 22 22 23 23 24 24 24 24 24 23 23
7 7 7 7 7 6 6 5 6 5 5 4 4 4 3 4 3 3 3 4 4 4 6 6 4 4 4 4 6 6 7 6 5 5 5 5 6 7 8 7 7 9 11 12 14 14 14 13 14 16 17 18 19 19 19 19 19 20 21 21 21 21 21 21 21 22 22 22 22 22 23 23 23 23
7 7 7 7 7 7 7 6 5 5 6 5 5 4 3 3 3 4 4 4 5 5 6 6 6 4 6 5 4 5 5 5 5 5 5 5 6 7 7 5 6 7 7 7 9 13 14 15 16 17 16 16 17 17 17 18 18 19 20 21 21 21 21 21 21 21 21 21 21 21 22 22 23 23
9 8 8 7 8 7 7 7 6 5 5 5 5 5 4 4 3 4 4 4 5 5 5 5 6 7 6 6 4 2 4 6 7 8 6 4 3 1 4 7 7 7 8 8 12 14 15 16 13 14 17 18 18 17 16 16 18 19 19 20 20 20 20 21 21 22 21 19 19 21 21 22 22 23
9 9 9 10 8 8 7 7 6 6 5 4 5 5 4 4 4 5 5 4 5 5 5 5 5 4 5 5 5 6 4 4 5 5 3 3 3 3 2 5 10 9 7 7 7 10 11 10 12 14 14 15 15 15 14 15 16 16 17 18 19 19 20 20 21 22 21 19 19 20 21 21 21 21
9 9 10 10 10 9 11 11 9 8 7 5 5 5 5 5 5 5 5 5 5 6 6 6 5 5 5 6 6 6 5 5 4 5 2 2 3 4 5 3 6 9 8 5 5 7 8 10 9 9 9 10 14 13 14 11 13 12 11 13 15 17 18 18 19 20 20 20 18 19 20 20 20 20
10 11 11 11 15 16 16 16 15 15 13 10 6 5 5 6 6 5 5 5 5 5 6 6 5 6 6 5 5 4 4 4 5 4 5 6 5 6 6 5 4 5 6 5 5 7 7 9 10 8 9 10 11 9 8 9 13 16 18 17 15 13 12 15 17 19 19 19 18 17 18 18 19 18
10 10 10 10 10 11 14 16 18 16 16 15 13 12 9 6 4 4 4 4 4 5 6 5 5 5 6 5 3 4 5 5 3 4 4 6 6 7 9 10 6 3 3 6 6 7 7 8 9 8 7 9 10 9 8 15 15 14 14 14 15 16 15 14 13 14 16 17 16 17 17 16 16 15
9 9 9 9 10 7 7 10 13 14 16 16 15 15 14 12 8 6 6 5 5 5 5 4 5 5 6 4 4 5 5 4 4 5 5 5 6 7 8 8 9 7 6 6 7 8 4 6 7 8 8 8 8 12 14 17 19 13 12 11 13 13 14 15 15 13 13 13 14 15 16 16 15 15
8 8 7 7 6 8 12 12 12 12 12 15 17 16 14 12 11 12 11 9 9 6 6 7 7 6 5 7 6 4 4 3 6 4 4 4 5 6 7 8 8 10 8 7 6 7 5 3 5 9 8 9 10 12 13 18 18 15 17 20 18 16 14 14 15 15 14 13 12 13 14 14 14 14
9 9 9 8 8 7 5 4 8 10 11 10 10 8 6 7 10 12 13 14 14 10 8 8 9 8 5 7 7 5 2 3 4 2 4 4 6 6 7 7 8 10 9 7 6 6 4 4 5 7 9 9 9 9 14 18 14 14 18 18 17 17 16 16 15 15 14 14 13 13 13 12 12 13
9 8 9 8 9 7 7 6 5 7 9 9 8 8 8 9 9 8 9 9 8 8 8 10 10 10 9 8 7 7 2 1 1 2 4 5 5 6 7 7 8 9 4 4 5 5 7 6 6 6 8 9 9 8 11 13 12 15 16 16 19 20 18 17 16 15 15 14 13 13 12 11 10 11
8 8 8 8 8 8 7 10 12 9 6 8 8 8 7 7 8 9 10 12 12 10 10 11 11 10 11 8 6 0 0 2 2 2 2 3 4 6 5 5 5 4 3 6 7 5 7 6 8 7 6 8 9 8 6 9 14 15 15 17 19 20 20 18 16 15 16 15 12 11 11 10 8 8
7 8 8 7 8 8 8 10 13 14 9 5 7 7 7 7 8 8 9 15 19 17 16 16 18 17 12 3 4 6 6 4 1 1 3 4 4 5 5 4 3 6 3 5 4 3 7 7 8 9 6 7 8 7 6 7 12 15 18 18 18 19 19 17 16 17 18 16 12 9 8 7 3 7
5 7 12 10 8 8 8 11 12 13 10 7 7 7 7 7 8 7 6 5 7 17 14 10 8 7 8 9 8 10 9 10 6 3 5 4 3 4 4 5 4 6 1 3 4 5 3 7 6 9 9 5 3 7 7 10 10 13 12 15 19 20 19 19 19 17 17 15 12 9 4 3 7 5
7 6 8 12 11 10 9 9 11 12 11 8 8 7 6 7 8 7 5 7 4 4 5 7 6 6 7 7 7 8 13 13 9 7 6 4 3 4 5 6 5 3 1 3 6 6 6 7 7 7 10 11 6 4 9 10 10 7 8 12 12 18 21 21 19 16 14 12 11 6 5 7 7 4
9 9 7 9 13 15 13 12 11 12 13 10 7 6 7 7 9 7 7 6 3 5 4 5 7 7 5 6 6 7 8 9 8 8 5 3 4 5 6 3 3 2 3 2 8 6 4 3 7 5 6 8 10 10 9 10 10 8 10 11 11 15 17 16 15 19 15 10 8 4 5 7 7 4
9 9 10 9 11 15 15 13 12 13 14 12 8 8 8 8 2 2 3 2 1 1 1 1 2 4 4 5 7 7 6 7 7 5 4 3 3 4 3 3 3 2 2 3 8 4 3 5 6 7 6 5 7 10 9 9 8 10 10 9 11 11 11 12 11 11 12 7 10 6 3 5 6 5
9 9 9 10 12 15 17 16 14 14 13 14 8 9 8 7 5 2 2 3 1 3 4 3 4 4 5 5 6 6 1 0 3 4 2 3 0 2 4 2 2 2 3 4 6 3 5 4 5 7 6 7 9 8 9 8 8 11 9 8 9 9 10 11 10 11 10 7 5 5 2 3 4 3
10 9 9 9 15 16 17 18 17 15 15 11 11 11 9 8 6 3 3 3 4 4 4 4 4 4 3 5 4 2 3 4 4 3 3 2 2 4 2 2 2 2 3 4 4 4 1 3 3 5 7 6 8 9 8 9 10 9 9 8 9 9 10 10 11 11 11 6 3 5 7 5 4 4
9 9 9 9 12 16 18 19 18 17 15 11 15 12 10 7 5 3 4 5 6 6 5 6 5 5 5 5 3 2 3 4 3 3 1 1 3 3 2 1 2 2 3 4 5 2 3 3 4 3 3 5 7 7 9 7 7 9 11 10 7 9 9 10 10 11 12 6 4 4 4 4 2 0
4 3 3 0 8 14 17 19 18 15 15 15 11 11 9 6 3 5 6 7 6 7 8 7 6 5 6 4 2 4 2 3 2 1 1 3 2 1 2 0 1 3 3 1 1 2 3 3 3 3 3 3 5 4 5 8 9 9 10 11 11 10 8 10 11 11 11 7 5 4 4 2 1 1
8 6 7 8 7 5 5 6 6 6 9 12 10 8 8 5 5 6 6 7 8 8 7 7 6 6 3 4 4 4 4 2 2 1 2 2 1 0 1 1 3 4 4 1 1 2 2 1 1 2 3 3 2 3 4 7 8 9 9 8 9 8 7 10 11 10 11 7 6 5 4 3 1 2
5 5 4 4 4 5 9 7 7 6 7 6 4 4 6 6 7 7 7 7 8 8 7 6 6 4 3 4 5 4 4 3 1 2 4 2 0 1 1 1 4 5 0 2 2 2 1 1 2 2 4 2 2 2 4 4 6 9 10 8 8 9 9 10 10 11 11 9 5 4 4 4 4 1
5 5 5 6 5 5 5 4 4 3 4 5 6 5 6 6 6 8 11 11 8 7 7 5 4 2 5 5 5 4 4 4 4 4 3 2 1 1 1 2 2 2 1 1 2 1 2 0 2 5 1 3 2 2 3 3 4 7 9 9 8 7 8 10 10 10 11 10 6 6 6 6 5 4
7 6 6 5 5 5 5 5 5 4 4 5 5 6 6 6 7 8 8 9 8 7 6 6 4 5 5 5 5 5 5 4 6 4 5 3 1 0 1 3 5 1 2 3 3 0 1 2 2 3 5 5 5 3 3 4 5 6 8 9 8 8 9 9 9 10 10 8 7 6 7 7 6 4
9 8 7 7 7 7 7 7 7 8 7 7 7 7 8 8 8 9 8 8 8 6 6 6 5 5 4 4 5 4 3 5 4 5 5 3 2 2 3 3 2 1 2 3 2 2 4 4 5 3 6 6 6 5 3 3 5 6 6 6 7 8 8 8 8 10 9 8 7 6 6 7 7 6
10 9 8 8 9 9 9 8 9 9 8 8 9 9 8 8 9 9 9 8 7 6 6 5 5 4 5 5 5 4 4 5 4 4 4 3 4 5 4 2 1 1 1 2 1 3 5 6 7 6 2 3 2 3 8 5 2 6 6 7 6 6 7 7 7 9 9 8 7 6 5 5 6 6
11 10 9 9 10 10 10 10 9 9 9 8 8 8 7 8 8 10 8 7 6 5 5 5 4 4 4 3 3 3 2 3 3 3 5 4 3 2 0 1 1 1 1 1 2 3 5 5 5 5 6 7 7 4 1 6 5 4 6 7 6 5 5 6 5 6 8 8 8 6 6 7 8 7
10 11 10 10 9 10 10 10 9 9 10 9 9 9 8 8 8 9 3 6 4 3 4 3 3 1 3 4 8 7 4 4 1 1 1 1 2 1 1 1 1 2 2 1 1 5 4 3 2 2 3 4 5 6 3 3 5 6 3 5 5 4 4 4 5 5 6 7 7 7 7 7 9 9
10 10 12 11 9 9 9 9 9 9 9 8 8 8 8 7 6 4 6 5 4 2 3 3 3 7 8 6 1 4 4 2 4 3 2 3 2 2 1 2 2 3 3 5 1 5 4 5 1 1 0 1 2 2 5 1 1 4 7 3 5 5 4 3 4 5 4 4 6 6 5 6 6 5
10 10 10 10 9 8 9 10 9 8 8 7 6 7 6 4 4 6 6 4 4 2 4 8 4 7 6 6 4 6 8 5 4 4 3 2 1 2 2 2 2 2 4 5 3 4 5 3 3 3 3 2 2 2 2 1 1 2 3 5 3 3 4 3 2 1 1 2 1 1 2 1 3 6
9 7 7 8 8 8 8 8 8 7 7 6 5 5 6 5 5 5 6 5 6 7 7 5 5 5 7 6 8 5 4 5 4 1 1 2 0 3 3 2 1 3 5 5 3 2 1 5 5 4 3 5 5 6 6 4 4 3 2 3 4 3 1 3 2 0 0 1 3 2 2 2 3 1
7 7 6 6 7 8 7 7 6 6 6 6 7 6 5 4 5 5 5 7 6 6 5 6 3 6 5 3 3 4 3 3 4 4 4 3 2 2 3 3 4 4 5 1 4 3 4 4 3 9 4 3 3 3 1 1 1 4 2 1 1 3 1 2 1 2 2 2 2 3 2 2 2 2
7 6 3 1 2 1 1 2 4 6 7 7 7 6 7 8 10 12 11 10 6 3 2 2 4 4 2 0 1 1 0 1 2 1 2 1 1 2 5 5 5 3 1 1 5 5 4 2 3 4 3 3 5 2 1 1 3 1 4 3 2 1 3 3 3 2 1 0 2 3 2 2 2 2
4 4 4 3 4 4 5 5 6 7 8 8 9 9 9 8 8 9 7 7 5 6 6 4 2 3 2 2 2 2 2 2 3 3 2 2 4 4 5 5 2 3 4 5 5 5 3 2 1 1 2 3 1 1 2 2 4 2 5 5 5 3 2 2 1 3 4 5 3 2 2 3 4 2
4 5 5 5 6 6 6 6 7 7 8 9 9 8 9 8 8 8 7 7 8 6 5 2 0 1 3 3 5 4 1 1 3 3 3 1 0 2 2 1 2 3 5 4 2 2 2 3 3 0 1 2 2 2 1 3 5 4 2 5 5 6 4 4 3 2 1 1 4 7 6 5 4 4
6 6 7 7 7 7 7 7 8 8 8 9 11 10 9 7 6 7 5 5 6 6 5 6 6 5 5 6 3 1 5 6 5 1 2 1 3 2 3 3 5 4 3 1 2 3 2 3 3 3 3 5 3 4 5 4 5 4 2 4 5 6 7 6 5 5 5 5 7 8 8 6 4 3
Wind_Direction
188 191 205 194 238 296 46 347 360 75 57 25 35 71 128 110 105 306 319 306 312 325 332 332 214 146 193 198 223 238 217 220 218 207 218 221 231 216 218 226 230 233 233 235 237 238 240 242 243 245 246 246 246 244 243 243 242 240 239 239 238 238 237 236 234 232 231 230 229 228 229 229 231 233
261 208 179 189 228 220 218 200 253 134 149 171 183 198 204 150 163 184 301 287 307 305 311 320 10 293 237 225 236 236 241 231 222 218 212 219 227 234 227 225 235 239 242 243 244 245 246 247 247 247 247 247 246 246 246 244 244 243 243 242 240 240 238 237 235 233 231 230 229 228 228 227 228 230
211 254 240 173 208 210 214 198 193 186 155 186 207 216 191 186 183 213 203 272 273 296 310 319 325 318 246 247 260 248 214 230 234 239 238 242 244 249 255 243 230 235 240 242 244 245 246 247 248 248 248 249 249 250 250 249 249 248 247 245 244 243 242 241 239 237 234 232 230 229 229 228 228 229
184 195 227 247 195 312 229 296 316 175 163 184 198 205 190 199 209 189 228 235 266 296 296 300 303 296 299 304 312 321 327 324 272 224 237 241 246 256 263 260 253 243 238 241 242 243 244 244 246 247 248 250 251 251 250 250 250 250 249 248 247 246 245 244 243 241 239 237 234 232 230 230 230 229
211 180 194 221 216 229 226 228 244 258 201 178 204 240 261 204 194 201 208 239 262 262 248 271 281 284 289 286 285 293 288 278 274 258 246 253 257 258 258 262 258 251 245 241 241 243 244 245 246 248 250 251 251 252 252 252 252 252 251 250 250 249 248 247 245 245 244 243 241 238 235 233 232 230
240 189 189 213 217 202 232 233 237 242 259 199 189 188 202 203 220 199 206 219 239 262 259 264 265 285 282 282 275 294 321 318 325 312 305 297 290 273 261 264 275 271 263 251 251 250 250 250 250 251 252 253 253 254 254 254 255 255 255 254 253 251 250 249 249 247 246 245 243 242 240 238 235 233
226 236 200 209 218 223 215 221 236 247 256 281 295 269 203 200 209 205 201 215 240 259 264 254 280 274 285 294 307 304 292 287 283 282 279 282 288 299 293 283 287 285 283 275 253 247 249 249 251 253 254 254 254 253 253 254 255 256 256 256 256 255 252 250 249 248 248 246 245 243 241 240 237 236
211 220 221 218 218 220 226 216 208 219 245 253 242 264 278 299 295 306 290 257 276 283 289 275 271 278 279 276 277 281 276 273 269 262 274 276 275 270 271 276 280 290 280 270 267 265 263 264 264 262 260 258 255 254 254 253 254 255 256 256 257 257 255 253 252 250 248 247 246 245 244 242 239 235
209 211 215 218 223 224 224 216 213 216 232 232 229 229 221 227 233 244 242 250 245 258 266 276 263 269 277 276 271 260 267 265 258 259 257 267 269 269 266 270 274 272 278 279 281 280 278 278 278 276 271 265 261 258 258 258 256 257 259 259 259 258 257 255 254 251 248 247 247 245 245 244 242 239
216 215 212 219 216 221 220 226 222 216 216 221 229 239 240 223 218 222 226 229 237 241 257 268 281 265 265 270 258 261 256 273 286 280 266 259 263 268 280 281 298 316 312 310 309 305 303 299 293 288 283 280 278 273 265 264 263 261 260 260 260 259 258 258 257 255 249 245 245 245 244 243 241 239
215 220 220 215 218 220 219 218 225 222 219 218 228 219 223 227 238 250 257 255 250 247 252 256 255 265 258 247 276 270 282 275 265 274 284 273 255 298 346 321 315 303 303 304 301 294 292 292 292 300 301 300 296 291 281 269 265 262 261 261 260 259 257 256 257 257 255 247 242 241 241 241 241 238
219 215 218 223 217 219 221 222 217 218 223 218 220 220 223 226 227 237 243 245 246 249 249 251 269 280 291 293 277 266 264 275 279 259 264 307 330 336 352 319 307 304 308 306 300 298 301 314 315 311 308 302 295 288 285 282 275 267 261 258 259 258 257 256 256 256 255 250 242 239 239 238 238 238
221 226 224 218 221 210 214 215 215 218 220 220 217 215 215 221 222 228 227 236 247 252 255 262 262 268 276 272 271 276 266 259 283 294 360 340 328 325 308 272 275 286 295 297 298 302 319 314 311 313 306 301 301 303 301 301 293 295 299 296 287 284 280 274 270 267 263 257 249 241 239 239 237 236
216 223 232 230 216 210 203 206 208 214 218 214 219 217 208 213 220 223 229 237 242 251 256 260 265 266 265 272 277 285 295 313 308 339 5 333 321 315 302 291 271 290 288 299 309 307 310 307 299 295 299 304 310 314 317 333 2 4 5 5 357 336 305 289 283 278 275 270 265 258 250 244 240 236
220 220 222 236 243 220 203 201 205 209 214 216 218 225 228 223 207 219 234 243 244 243 248 253 251 259 270 274 289 300 313 307 353 345 336 321 323 326 326 319 305 228 309 310 306 300 298 292 286 289 295 304 311 319 340 11 12 23 16 7 0 353 346 335 316 297 285 278 270 264 260 255 249 240
218 223 224 221 229 228 200 196 206 210 213 215 218 221 227 229 229 221 213 233 257 264 278 273 266 275 273 292 300 297 300 312 329 319 323 308 313 314 315 306 307 301 306 302 304 291 279 276 282 301 313 317 323 334 342 356 353 12 9 0 355 349 343 340 334 323 305 289 276 266 261 254 244 235
216 219 230 242 238 236 214 194 195 201 210 217 218 222 226 233 235 241 242 229 231 248 253 260 268 262 283 283 274 275 278 296 294 297 294 303 307 308 301 299 301 302 300 300 289 291 284 280 321 317 325 337 335 331 339 344 346 351 343 351 351 349 340 335 333 329 321 305 287 275 267 259 246 235
220 216 218 224 236 244 250 214 194 195 206 206 215 210 216 224 237 240 242 243 238 229 235 242 248 254 243 255 261 259 261 275 278 298 284 291 295 296 287 289 289 284 293 283 290 302 332 358 338 325 327 336 330 328 328 328 334 346 347 337 341 337 333 330 330 330 324 314 302 289 278 265 249 235
218 219 219 219 223 228 238 240 214 191 198 205 210 208 214 221 231 233 231 222 215 209 213 223 235 244 244 249 261 273 264 184 223 236 273 287 282 277 279 276 263 271 284 6 13 316 330 344 346 335 326 325 320 317 313 316 336 342 341 338 334 333 326 325 325 328 327 319 308 300 292 276 255 234
212 217 217 218 223 223 224 225 224 219 199 193 194 193 203 218 225 229 227 223 214 214 208 215 220 224 230 223 242 287 301 266 257 286 291 281 272 276 278 287 294 302 2 50 19 337 326 345 337 323 321 317 315 315 314 333 345 344 344 337 330 323 322 320 323 322 323 321 310 307 304 291 259 232
219 217 218 218 222 223 226 221 213 220 212 219 214 207 208 216 226 232 226 215 215 213 216 215 218 221 222 182 218 221 220 239 302 264 270 270 277 299 303 285 318 312 322 51 1 358 330 338 329 322 325 328 311 322 336 342 347 346 333 326 322 318 315 318 321 322 320 320 315 333 320 302 244 168
246 231 226 224 228 229 227 219 209 211 203 219 219 219 224 229 238 244 256 268 220 222 225 240 260 267 265 265 279 277 246 207 186 210 240 259 305 289 287 302 298 291 354 43 10 19 324 318 327 323 322 317 323 329 339 338 332 332 327 337 335 326 325 323 321 317 314 311 319 1 6 99 125 132
247 246 236 230 228 229 230 226 208 203 195 213 215 222 227 236 244 247 255 241 232 149 202 225 224 243 241 242 243 247 243 228 202 210 223 245 261 281 285 287 296 318 95 35 29 9 326 337 337 343 335 333 333 359 340 328 330 334 352 344 337 342 334 324 316 318 317 311 338 19 109 135 132 127
230 238 242 228 226 228 228 222 206 202 201 207 214 210 222 231 238 240 242 249 265 176 190 201 195 217 225 230 227 225 233 232 221 202 199 209 227 249 260 286 4 334 328 360 25 360 310 333 321 357 352 331 326 336 337 330 331 357 360 349 348 336 333 340 343 337 352 6 10 59 126 154 148 128
222 223 227 234 215 215 222 216 202 197 206 214 212 209 218 224 210 32 262 151 257 108 207 285 234 213 233 245 254 245 224 218 210 173 182 210 229 262 324 16 16 317 312 356 11 352 323 327 327 339 337 330 314 325 330 322 336 353 355 356 341 338 341 342 335 339 349 45 42 54 118 171 170 136
223 223 218 221 218 207 212 211 203 199 198 211 218 222 198 130 143 262 328 326 310 214 211 215 224 234 234 241 242 262 257 335 61 123 168 178 314 32 59 64 355 326 309 327 337 318 305 328 348 338 337 337 326 326 322 334 345 342 346 351 342 340 341 335 338 339 343 354 35 17 355 213 200 159
220 222 223 220 209 201 206 206 206 202 201 196 210 208 149 162 147 179 241 263 270 268 251 240 239 239 240 253 273 296 256 90 61 52 35 26 26 65 54 44 28 297 287 297 304 285 300 313 352 357 342 337 322 323 329 340 338 337 333 350 346 346 340 342 346 344 338 0 45 43 55 36 345 315
219 223 221 225 210 197 200 203 204 206 196 199 208 206 177 167 178 225 231 244 243 245 240 238 234 234 239 247 236 254 50 71 100 77 26 44 49 55 33 308 275 282 282 287 276 286 32 349 335 7 0 335 326 331 333 328 325 336 337 336 347 345 341 348 346 343 335 355 45 20 25 23 16 267
227 88 84 16 210 200 200 200 202 204 204 208 199 203 199 193 214 215 229 232 231 228 231 230 228 232 230 204 165 109 113 83 79 88 49 58 56 240 228 220 291 278 276 250 16 57 43 1 330 333 343 322 313 336 347 324 324 337 343 341 343 346 347 350 347 344 338 3 16 6 27 20 346 243
111 125 95 99 105 128 166 164 169 188 200 207 203 187 182 198 211 214 214 222 223 224 222 220 220 224 210 212 138 121 108 117 93 110 87 58 287 190 66 359 303 294 262 62 350 106 51 348 306 308 311 301 350 15 343 320 327 336 344 351 337 316 351 353 351 343 340 358 13 16 16 2 19 191
132 139 156 136 143 128 173 179 166 148 133 141 162 168 192 202 211 212 213 214 218 223 220 218 221 204 216 107 114 122 120 113 166 135 140 155 100 43 76 332 281 278 26 32 335 117 115 319 300 304 302 319 57 47 319 299 326 341 348 352 347 350 344 348 347 346 342 343 3 15 2 354 356 343
167 139 114 124 116 139 152 152 133 141 162 170 172 181 190 204 215 222 220 219 221 218 215 222 209 183 130 145 134 143 155 182 180 150 122 120 112 284 12 271 266 261 68 26 299 148 138 324 311 302 329 83 78 353 318 323 357 352 346 349 346 340 352 354 349 344 344 335 353 10 11 359 3 5
192 153 153 163 175 171 183 172 180 170 174 182 189 192 198 201 208 220 220 215 216 213 187 195 154 159 171 151 163 164 177 168 138 135 124 139 152 203 229 233 253 258 32 331 298 253 49 34 12 359 83 72 43 39 344 344 12 3 355 350 346 348 355 357 353 345 339 347 359 10 9 8 4 19
203 194 187 193 192 198 201 203 198 193 183 190 194 202 200 204 210 214 213 208 213 193 185 171 173 182 171 168 170 174 178 139 156 136 138 159 189 205 227 250 258 98 60 300 300 23 18 24 19 64 103 90 88 58 16 350 9 3 2 358 351 351 353 352 359 348 349 347 341 355 12 13 12 11
207 212 204 200 208 209 214 215 213 213 197 193 198 200 196 204 215 221 217 199 196 186 183 182 188 193 182 180 172 176 185 151 167 149 158 184 197 217 226 255 343 57 301 279 350 46 35 30 11 360 28 158 162 61 30 16 344 7 358 15 4 358 353 357 1 354 352 354 352 2 8 15 18 8
202 211 213 209 210 212 219 221 222 218 218 208 196 195 204 205 214 226 223 184 185 177 176 195 186 197 182 180 169 160 127 116 128 145 169 199 203 215 325 272 293 252 246 279 64 80 66 62 17 10 353 353 348 348 121 340 352 41 20 6 2 359 358 357 8 7 359 358 1 1 14 20 20 14
201 210 213 220 213 209 216 221 221 220 222 218 193 196 203 212 204 222 175 139 151 168 177 181 181 155 83 36 32 28 9 41 5 324 275 194 225 189 241 274 4 338 343 326 122 111 102 82 52 32 356 353 349 338 330 186 17 33 30 21 360 351 4 4 1 19 17 6 10 13 24 31 35 27
202 204 214 220 219 209 211 218 219 215 214 211 195 194 201 220 204 147 116 137 161 186 144 141 85 55 51 54 43 75 332 272 256 246 228 229 229 180 109 32 20 337 337 303 220 138 147 130 140 218 9 335 296 322 319 142 145 24 340 357 38 332 353 20 23 23 20 31 21 27 33 48 47 34
199 205 210 220 219 216 209 214 218 213 205 200 196 188 183 177 138 134 137 138 155 106 77 62 66 134 151 174 157 171 201 211 216 235 244 250 221 126 107 80 13 314 304 295 282 168 153 141 189 226 175 188 229 239 237 210 189 172 314 333 66 14 337 353 53 37 7 73 100 67 65 81 88 60
200 209 217 222 226 226 224 214 215 203 195 181 155 144 143 137 114 113 111 109 97 86 107 155 222 143 137 175 180 194 198 188 179 153 278 238 149 111 112 110 247 261 271 269 275 8 358 181 206 206 194 196 225 243 237 168 113 139 161 18 15 96 309 322 333 279 272 235 197 155 99 58 49 2
203 206 222 232 234 231 227 225 200 180 159 139 113 93 108 139 121 104 101 94 95 106 146 197 186 137 162 178 179 184 197 191 170 188 209 170 159 208 155 169 232 249 246 270 311 276 232 237 188 202 201 175 246 273 333 16 219 179 151 140 341 47 354 292 325 320 286 246 93 51 64 67 91 68
207 203 180 316 292 8 316 130 102 89 81 85 95 97 81 82 86 101 106 115 130 139 77 81 98 113 109 116 86 86 58 9 349 167 164 144 222 219 177 201 246 246 172 243 254 275 279 235 199 207 218 198 197 273 304 223 288 160 159 153 150 137 68 31 74 110 153 325 132 132 115 69 70 42
134 114 93 59 32 41 61 72 86 97 102 96 82 86 89 90 96 94 98 101 96 74 67 53 33 72 50 275 195 185 175 204 228 254 260 202 190 217 214 201 229 296 282 251 240 243 292 309 321 323 344 311 252 165 260 307 295 192 167 160 170 160 142 175 181 106 83 88 104 168 197 172 157 164
80 80 72 75 65 60 56 68 80 86 93 92 91 84 81 81 90 103 117 136 134 127 113 102 327 156 178 258 214 182 152 296 239 227 249 161 350 318 312 257 214 237 249 268 291 312 319 323 295 158 284 278 289 292 260 275 273 270 196 153 143 153 165 172 193 204 160 207 190 175 205 211 206 187
80 85 90 85 86 80 78 74 78 88 95 99 101 105 111 108 110 105 110 123 120 142 167 194 202 193 192 226 199 169 234 206 190 99 53 320 292 301 299 285 268 258 277 328 332 305 301 300 311 306 269 254 249 225 229 239 254 249 227 172 179 184 172 172 181 197 211 214 249 225 191 180 186 200